Content
SEND FEEDBACK

Daily
Averages
Monthly
Summary
Philippines

QUEZON CITY, PHILIPPINES


Home > Asia > Philippines
Elevation: 46 meters     Latitude: 14 39N     Longitude: 121 03E

WEATHER
 
SELECT A DAY
Number of Records: 176,944;   Date Range: 7/1/96 - 10/18/14
 
SHARE

PRINT THIS DATA

[ ← Previous Day ]
WEATHER ALMANAC - 25 DECEMBER, 2013
[ Next Day → ]
[ °F ]   °C
Weather ElementAverageHighLow
Temperature28.8 °C33 °C (1:00 pm)25 °C (6:00 am)
Dewpoint24.3 °C25.6 °C (8:00 pm)22 °C (3:00 pm)
Humidity76.2 %100 % (6:00 am)48 % (2:00 pm)
Barometer1010.8 hPa1012.5 hPa (8:00 am)1008.1 hPa (3:00 pm)
Wind Speed7.4 km/h14.8 km/h (11:00 am)
Weather ElementAverage
Visibility9.8 km
Wind DirectionESE (122.6 °)

Weather ElementTotal
Precipitation---
Cooling Degree Days10.7 (Base 18.3)
Growing Degree Days19 (Base 10)
Averaged from 31 records on 25 December, 2013
WEATHER CONDITIONS BREAKOUT
WIND DIRECTION BREAKOUT
WEATHER BY HOUR - 25 DECEMBER, 2013
[ °F ]   °C
Local TimeTemperatureDewpointHumidityBarometerVisibilityWind DirectionWind SpeedGust SpeedPrecipitationEventsConditions
1:00 AM27 °C25 °C89 %1011.2 hPa10 kmEast (100°)5.6 km/hScattered Clouds
2:00 AM26.1 °C25 °C91 %1010.8 hPa9.7 kmENE (60°)7.2 km/hHaze
2:00 AM26 °C25 °C94 %1010.2 hPa10 kmENE (60°)5.6 km/hPartly Cloudy
3:00 AM26 °C25 °C94 %1010.2 hPa10 kmCalmPartly Cloudy
4:00 AM26 °C25 °C94 %1010.2 hPa10 kmCalmPartly Cloudy
5:00 AM25.6 °C24.4 °C92 %1010.8 hPa9.7 kmEast (80°)7.2 km/hHaze
5:00 AM26 °C24 °C89 %1010.2 hPa10 kmEast (80°)5.6 km/hPartly Cloudy
6:00 AM25 °C25 °C100 %1011.2 hPa10 kmVariable3.7 km/hPartly Cloudy
7:00 AM25 °C25 °C100 %1011.2 hPa10 kmSW (220°)1.9 km/hPartly Cloudy
8:00 AM27.2 °C25 °C83 %1012.5 hPa9.7 kmNW (320°)3.5 km/hHaze
8:00 AM27 °C25 °C89 %1012.2 hPa10 kmNW (320°)3.7 km/hPartly Cloudy
9:00 AM29 °C25 °C79 %1012.2 hPa10 kmWSW (250°)5.6 km/hPartly Cloudy
10:00 AM31 °C24 °C66 %1012.2 hPa10 kmSE (130°)11.1 km/hPartly Cloudy
11:00 AM30.6 °C22.8 °C55 %1012.5 hPa9.7 kmESE (110°)14.3 km/hPartly Cloudy
11:00 AM31 °C23 °C62 %1012.2 hPa10 kmESE (110°)14.8 km/hPartly Cloudy
12:00 PM31 °C23 °C62 %1011.2 hPa10 kmEast (100°)14.8 km/hPartly Cloudy
1:00 PM33 °C23 °C55 %1010.2 hPa10 kmSE (130°)13 km/hPartly Cloudy
2:00 PM32.8 °C23.3 °C48 %1009.1 hPa9.7 kmESE (120°)7.2 km/hScattered Clouds
2:00 PM33 °C23 °C55 %1009.1 hPa10 kmESE (120°)9.3 km/hPartly Cloudy
3:00 PM32 °C22 °C55 %1008.1 hPa10 kmEast (100°)13 km/hPartly Cloudy
4:00 PM32 °C23 °C59 %1008.1 hPa10 kmESE (110°)9.3 km/hPartly Cloudy
5:00 PM30.6 °C23.3 °C56 %1009.5 hPa9.7 kmSE (130°)7.2 km/hScattered Clouds
5:00 PM31 °C24 °C66 %1009.1 hPa10 kmSE (130°)7.4 km/hPartly Cloudy
6:00 PM30 °C24 °C70 %1010.2 hPa10 kmSE (130°)7.4 km/hPartly Cloudy
7:00 PM30 °C25 °C74 %1010.2 hPa10 kmESE (110°)9.3 km/hPartly Cloudy
8:00 PM28.9 °C25.6 °C76 %1011.5 hPa9.7 kmESE (110°)7.2 km/hHaze
8:00 PM29 °C25 °C79 %1011.2 hPa10 kmESE (110°)9.3 km/hPartly Cloudy
9:00 PM28 °C25 °C84 %1012.2 hPa10 kmSE (140°)9.3 km/hPartly Cloudy
10:00 PM28 °C25 °C84 %1012.2 hPa10 kmSSE (160°)5.6 km/hPartly Cloudy
11:00 PM27.8 °C24.4 °C79 %1011.5 hPa9.7 kmSE (130°)3.5 km/hHaze
11:00 PM28 °C25 °C84 %1011.2 hPa10 kmSE (130°)5.6 km/hPartly Cloudy
Hourly data recorded from RPLL, located 0 kilometers away from Quezon City, Philippines







STORIES FROM OUR PARTNERS